Regional Weather Roundup
Issued by NWS Little Rock, AR

Home | Current Version | Previous Version | Text Only | Print | Product List | Glossary On
Versions: 1 2 3 4 5 6 7 8 9 10 11 12 13 14 15 16 17 18 19 20 21 22 23 24 25 26 27
000
ASUS44 KLZK 012305
RWRLZK

WEATHER ROUNDUP FOR ARKANSAS
NATIONAL WEATHER SERVICE LITTLE ROCK AR
600 PM CDT SUN MAY 01 2016

NOTE: "FAIR" INDICATES FEW OR NO CLOUDS BELOW 12,000 FEET WITH NO
SIGNIFICANT WEATHER AND/OR OBSTRUCTIONS TO VISIBILITY.

ARZ001-003-010-029-020000-
NORTHWEST ARKANSAS

CITY           SKY/WX    TMP DP  RH WIND       PRES   REMARKS
FAYETTEVILLE   SUNNY     64  48  56 NW10      30.02R
FORT SMITH     SUNNY     72  44  36 W12       29.99R
HARRISON       SUNNY     69  47  45 NW10      29.99R
BENTONVILLE    SUNNY     63  43  48 NW12      30.04R
ROGERS         MOSUNNY   63  47  55 VRB6      30.04R
SILOAM SPGS    MOSUNNY   63  45  51 NW12      30.05R
HIGHFILL       SUNNY     64  47  53 NW9       30.03R
SPRINGDALE     SUNNY     64  46  52 NW12      30.04R
$$

ARZ004-005-016-020000-
NORTH CENTRAL ARKANSAS

CITY           SKY/WX    TMP DP  RH WIND       PRES   REMARKS
BATESVILLE     SUNNY     77  55  47 NW3       29.93S
FLIPPIN        SUNNY    N/A N/A N/A W7        29.94R
MTN HOME       SUNNY     72  48  42 VRB5      29.95R
$$

ARZ040-041-020000-
WEST CENTRAL ARKANSAS

CITY           SKY/WX    TMP DP  RH WIND       PRES   REMARKS
MENA           SUNNY     75  52  43 N8        29.98R
MOUNT IDA      SUNNY     78  52  40 VRB7      29.93R
$$

ARZ009-017-025-026-028-020000-
NORTHEAST ARKANSAS

CITY           SKY/WX    TMP DP  RH WIND       PRES   REMARKS
CORNING          N/A     77  59  53 W14       29.92R
JONESBORO      SUNNY     78  61  55 W9        29.92R
NEWPORT        SUNNY     79  60  51 NW6       29.94R
WALNUT RIDGE   SUNNY     77  55  47 W9        29.92S
BLYTHEVILLE    MOSUNNY   79  65  62 SW5       29.92S
$$

ARZ022-023-033-042-044-020000-
CENTRAL ARKANSAS

CITY           SKY/WX    TMP DP  RH WIND       PRES   REMARKS
LITTLE ROCK    MOSUNNY   81  56  42 NW9       29.93S
N LITTLE ROCK    N/A     77  56  47 NW3       29.92S
JACKSONVILLE   SUNNY     79  57  47 W6        29.93R
SEARCY         MOSUNNY   78  63  59 CALM      29.94R
HOT SPRINGS    SUNNY     79  54  41 VRB5      29.93S
RUSSELLVILLE   SUNNY     77  51  40 NW8       29.94S
$$

ARZ036-020000-
EAST ARKANSAS

CITY           SKY/WX    TMP DP  RH WIND       PRES   REMARKS
WEST MEMPHIS   MOSUNNY   79  67  66 CALM      29.91S
$$

ARZ050-053-066-070-073-020000-
SOUTHWEST ARKANSAS

CITY           SKY/WX    TMP DP  RH WIND       PRES   REMARKS
ARKADELPHIA    FAIR      82  66  58 NW7       29.92S
CAMDEN         SUNNY     82  64  54 NW6       29.89S
TEXARKANA      SUNNY     80  59  48 N8        29.91F
EL DORADO      MOSUNNY   81  69  67 NW8       29.89R
DE QUEEN       SUNNY     80  55  42 N6        29.91F
$$

ARZ056-057-069-020000-
SOUTHEAST ARKANSAS

CITY           SKY/WX    TMP DP  RH WIND       PRES   REMARKS
PINE BLUFF     SUNNY     80  65  59 N7        29.91S
STUTTGART      SUNNY     79  64  61 NW5       29.93R
MONTICELLO     PTSUNNY   81  70  69 VRB5      29.89S

$$






USA.gov is the U.S. government's official web portal to all federal, state and local government web resources and services.